TimeMST,TemperatureF,Dew PointF,Humidity,Sea Level PressureIn,VisibilityMPH,Wind Direction,Wind SpeedMPH,Gust SpeedMPH,PrecipitationIn,Events,Conditions,WindDirDegrees,DateUTC
12:53 AM,21.0,15.1,78,30.35,10.0,SSW,8.1,-,N/A,,Clear,200,2013-12-26 07:53:00
1:53 AM,23.0,16.0,74,30.31,10.0,SW,3.5,-,N/A,,Clear,220,2013-12-26 08:53:00
2:53 AM,21.0,14.0,74,30.31,10.0,NNE,3.5,-,N/A,,Clear,20,2013-12-26 09:53:00
3:53 AM,23.0,10.9,60,30.28,10.0,NNW,4.6,-,N/A,,Clear,340,2013-12-26 10:53:00
4:53 AM,21.0,10.9,65,30.30,10.0,NE,3.5,-,N/A,,Clear,40,2013-12-26 11:53:00
5:53 AM,19.0,10.9,71,30.32,10.0,NE,3.5,-,N/A,,Clear,40,2013-12-26 12:53:00
6:53 AM,27.0,6.1,41,30.29,10.0,North,4.6,-,N/A,,Clear,360,2013-12-26 13:53:00
7:53 AM,28.9,7.0,40,30.27,10.0,NW,4.6,-,N/A,,Clear,320,2013-12-26 14:53:00
8:53 AM,33.1,16.0,50,30.26,10.0,North,5.8,-,N/A,,Clear,360,2013-12-26 15:53:00
9:53 AM,41.0,15.1,35,30.25,10.0,North,9.2,-,N/A,,Clear,10,2013-12-26 16:53:00
10:53 AM,48.9,14.0,25,30.20,10.0,North,10.4,-,N/A,,Clear,10,2013-12-26 17:53:00
11:53 AM,52.0,8.1,17,30.17,10.0,North,8.1,-,N/A,,Clear,10,2013-12-26 18:53:00
12:53 PM,51.1,12.9,22,30.16,10.0,ENE,11.5,-,N/A,,Clear,60,2013-12-26 19:53:00
1:53 PM,50.0,10.9,21,30.15,10.0,ENE,17.3,-,N/A,,Clear,60,2013-12-26 20:53:00
2:53 PM,48.9,10.9,22,30.18,10.0,ENE,16.1,-,N/A,,Clear,60,2013-12-26 21:53:00
3:53 PM,46.0,16.0,30,30.20,10.0,ENE,9.2,-,N/A,,Clear,60,2013-12-26 22:53:00
4:53 PM,37.9,18.0,45,30.26,10.0,ENE,6.9,-,N/A,,Clear,60,2013-12-26 23:53:00
5:53 PM,35.1,16.0,46,30.31,10.0,ENE,6.9,-,N/A,,Clear,70,2013-12-27 00:53:00
6:53 PM,36.0,12.0,37,30.29,10.0,NE,5.8,-,N/A,,Clear,40,2013-12-27 01:53:00
7:53 PM,32.0,12.9,45,30.32,10.0,North,6.9,-,N/A,,Clear,10,2013-12-27 02:53:00
8:53 PM,28.9,12.0,49,30.34,10.0,North,6.9,-,N/A,,Clear,360,2013-12-27 03:53:00
9:53 PM,28.9,10.9,47,30.32,10.0,NNE,6.9,-,N/A,,Clear,20,2013-12-27 04:53:00
10:53 PM,28.0,10.9,49,30.29,10.0,North,5.8,-,N/A,,Clear,10,2013-12-27 05:53:00
11:53 PM,28.9,10.9,47,30.27,10.0,North,5.8,-,N/A,,Clear,360,2013-12-27 06:53:00